Regional Weather Roundup
Issued by NWS Glasgow, MT

Home | Current Version | Previous Version | Text Only | Print | Product List | Glossary On
Versions: 1 2 3 4 5 6 7 8 9 10 11 12 13 14 15 16 17 18 19 20 21 22 23 24 25 26 27 28 29 30 31 32 33 34 35 36 37 38 39 40 41 42 43 44 45 46 47 48 49 50
000
ASUS45 KGGW 172315
RWRGGW
HOURLY WEATHER ROUNDUP FOR NORTHEAST MONTANA
NATIONAL WEATHER SERVICE GLASGOW MONTANA
500 PM MDT WED SEP 17 2014

NOTE: "FAIR" INDICATES FEW OR NO CLOUDS BELOW 12,000 FEET WITH NO
SIGNIFICANT WEATHER AND/OR OBSTRUCTIONS TO VISISBILITY.

NORTHEAST MONTANA


CITY           SKY/WX    TMP DP  RH WIND       PRES   REMARKS
GLASGOW        SUNNY     80  46  30 SE14      29.82F
PLENTYWOOD       N/A     78  33  19 SE12G20     N/A
WOLF POINT     SUNNY     80  46  30 SE9       29.85F
JORDAN           N/A     83  45  26 SE9       29.83F
WINNETT          N/A     80  48  32 E5          N/A
SIDNEY         SUNNY    N/A N/A N/A SE9       29.91F
GLENDIVE       SUNNY     77  50  38 E12       29.90F
MALTA            N/A     84  50  30 S6          N/A
SCOBEY           N/A     77  40  26 SE14G23   29.88F

FORT PECK REPORTS


CITY           SKY/WX    TMP DP  RH WIND       PRES   REMARKS
FORT PECK        N/A     81  46  29 E14         N/A
THE PINES        N/A     84  42  22 SE5         N/A

SOUTHEAST MONTANA


CITY           SKY/WX    TMP DP  RH WIND       PRES   REMARKS
BILLINGS       PTSUNNY   84  43  23 CALM      29.86F
MILES CITY     SUNNY     83  43  24 SE7       29.84F
BAKER          SUNNY     76  50  40 S18       29.92F
LIVINGSTON     MOSUNNY   83  44  25 NW3       29.90F

CENTRAL MONTANA


CITY           SKY/WX    TMP DP  RH WIND       PRES   REMARKS
HAVRE          MOSUNNY   82  51  34 SE8       29.77F
LEWISTOWN      PTSUNNY   78  52  40 E10       29.88F
GREAT FALLS    CLOUDY    79  55  43 S5        29.81F
CUT BANK       PTSUNNY   83  43  24 SW7       29.80F
HELENA         CLOUDY    77  55  46 W5        29.86S
BUTTE          CLOUDY    75  34  22 SW12G21   30.00S
BOZEMAN        CLOUDY    79  44  28 N9        29.93R

WESTERN MONTANA


CITY           SKY/WX    TMP DP  RH WIND       PRES   REMARKS
MISSOULA       CLOUDY    81  46  29 SE3       29.80F
KALISPELL      NOT AVBL

NORTH DAKOTA


CITY           SKY/WX    TMP DP  RH WIND       PRES   REMARKS
WILLISTON      SUNNY     75  41  29 S12       29.92F
DICKINSON      MOSUNNY   71  47  42 SE13      29.93S
MINOT          SUNNY     67  49  52 E12       29.97F
BISMARCK       MOSUNNY   69  52  54 E6        29.96S

SOUTHERN SASKATCHEWAN


CITY           SKY/WX    TMP DP  RH WIND       PRES   REMARKS
REGINA         MOSUNNY   66  50  55 SE14G22   29.91F
MOOSE JAW      MOSUNNY   72  52  49 SE15G21   29.86F
ESTEVAN        MOSUNNY   64  52  63 SE12      29.97F
SWIFT CURRENT  SUNNY     79  43  27 S10G22    29.79F



USA.gov is the U.S. government's official web portal to all federal, state and local government web resources and services.